Location: Unspecified
(48.2082°N, 0.0000°E)
Time: 09:32:40
(UTC+00:00)

Altair - Pass Details

Date: 18 June 2019
Orbit: 1501 x 1683 km, 47.2° (Epoch: 19 July)

Event Time Altitude Azimuth Distance (km) Brightness Sun altitude
Rises 02:43:45 0° 289° (WNW) 4,873 9.9 -9.7°
Reaches altitude 10° 02:46:57 10° 285° (WNW) 3,903 9.4 -9.3°
Maximum altitude 02:56:30 51° 214° (SSW) 2,031 7.8 -8.3°
Drops below altitude 10° 03:06:08 10° 142° (SE) 3,937 9.5 -7.3°
Sets 03:09:24 0° 137° (SE) 4,916 10.1 -6.9°
